Overview Statistics Trail Chart Weather Telemetry Raw packets
 

This is the latest recevied weather packets stored in our database for station/object N5ATR. If no packets are shown the sender has not sent any weather packets the latest 10 day(s).

<< 35 36 37 38 39 40 41 >>
Time Temp. Humidity Pressure Rain* Wind** Luminosity Snow
1788454035 25° C 37% 1023.5 hPa 0 mm - 606 W/m² -
1788453731 25.56° C 35% 1023.9 hPa 0 mm - 607 W/m² -
1788453430 24.44° C 40% 1023.6 hPa 0 mm - 625 W/m² -
1788453127 24.44° C 39% 1023.4 hPa 0 mm - 627 W/m² -
1788452823 25° C 38% 1023.4 hPa 0 mm - 552 W/m² -
1788452519 24.44° C 38% 1023.8 hPa 0 mm - 607 W/m² -
1788452214 22.78° C 39% 1023.6 hPa 0 mm - 574 W/m² -
1788451909 23.33° C 38% 1023.3 hPa 0 mm - 144 W/m² -
1788451605 22.78° C 41% 1023.3 hPa 0 mm - 397 W/m² -
1788451299 23.89° C 37% 1023.1 hPa 0 mm - 380 W/m² -
1788450998 23.33° C 37% 1023.1 hPa 0 mm - 439 W/m² -
1788450692 23.33° C 39% 1023.5 hPa 0 mm - 366 W/m² -
1788450389 22.22° C 44% 1023.1 hPa 0 mm - 265 W/m² -
1788450085 22.78° C 44% 1023.3 hPa 0 mm - 176 W/m² -
1788449780 22.78° C 45% 1023.3 hPa 0 mm - 381 W/m² -
1788449476 22.78° C 45% 1023.1 hPa 0 mm - 219 W/m² -
1788449172 22.78° C 44% 1023.3 hPa 0 mm - 308 W/m² -
1788448868 23.33° C 43% 1023.3 hPa 0 mm - 350 W/m² -
1788448567 22.78° C 45% 1023.3 hPa 0 mm - 331 W/m² -
1788448263 22.78° C 45% 1023.3 hPa 0 mm - 318 W/m² -
1788447962 22.22° C 45% 1023.4 hPa 0 mm - 299 W/m² -
1788447657 21.67° C 46% 1023.5 hPa 0 mm - 279 W/m² -
1788447357 21.67° C 47% 1023.4 hPa 0 mm - 184 W/m² -
1788447052 21.67° C 47% 1023.6 hPa 0 mm - 162 W/m² -
1788446751 21.67° C 47% 1023.6 hPa 0 mm - 168 W/m² -

* Rain latest hour (hover to see other rain measurements)
** Current wind speed in m/s (hover to see current wind gust speed)